TimeEDT,TemperatureF,Dew PointF,Humidity,Sea Level PressureIn,VisibilityMPH,Wind Direction,Wind SpeedMPH,Gust SpeedMPH,PrecipitationIn,Events,Conditions,WindDirDegrees,DateUTC
12:53 AM,79.0,77.0,94,30.03,10.0,East,12.7,-,N/A,,Clear,100,2013-09-16 04:53:00
1:53 AM,79.0,78.1,97,30.04,10.0,ENE,10.4,-,N/A,,Clear,60,2013-09-16 05:53:00
2:23 AM,78.1,78.1,100,30.05,10.0,East,15.0,-,N/A,,Scattered Clouds,100,2013-09-16 06:23:00
2:35 AM,78.1,78.1,100,30.04,10.0,East,16.1,-,N/A,,Mostly Cloudy,90,2013-09-16 06:35:00
2:53 AM,78.1,77.0,96,30.04,10.0,East,17.3,-,N/A,,Scattered Clouds,90,2013-09-16 06:53:00
3:53 AM,79.0,75.9,90,30.01,10.0,East,11.5,-,N/A,,Clear,90,2013-09-16 07:53:00
4:53 AM,78.1,75.0,90,30.02,10.0,East,11.5,-,N/A,,Clear,100,2013-09-16 08:53:00
5:53 AM,78.1,75.0,90,30.02,10.0,East,9.2,-,N/A,,Clear,100,2013-09-16 09:53:00
6:53 AM,78.1,75.9,93,30.03,10.0,ENE,11.5,-,N/A,,Clear,70,2013-09-16 10:53:00
7:53 AM,78.1,75.9,93,30.05,10.0,ENE,10.4,-,N/A,,Clear,70,2013-09-16 11:53:00
8:53 AM,80.1,77.0,90,30.07,10.0,ENE,13.8,-,N/A,,Clear,70,2013-09-16 12:53:00
9:53 AM,81.0,77.0,88,30.06,10.0,East,13.8,-,N/A,,Clear,90,2013-09-16 13:53:00
10:53 AM,84.0,75.9,76,30.05,10.0,East,15.0,-,N/A,,Clear,80,2013-09-16 14:53:00
11:53 AM,86.0,75.0,70,30.05,10.0,East,10.4,-,N/A,,Clear,90,2013-09-16 15:53:00
12:53 PM,87.1,75.9,69,30.03,10.0,East,10.4,-,N/A,,Clear,80,2013-09-16 16:53:00
1:53 PM,89.1,77.0,67,29.99,10.0,ENE,9.2,-,N/A,,Clear,70,2013-09-16 17:53:00
2:53 PM,90.0,75.9,63,29.99,10.0,East,9.2,-,N/A,,Clear,80,2013-09-16 18:53:00
3:53 PM,91.0,75.9,61,29.98,10.0,East,10.4,-,N/A,,Clear,90,2013-09-16 19:53:00
4:11 PM,84.0,73.0,69,29.97,10.0,SSE,28.8,35.7,N/A,Thunderstorm,Thunderstorm,150,2013-09-16 20:11:00
4:22 PM,78.1,75.9,93,29.96,1.8,SSE,33.4,42.6,0.01,Rain-Thunderstorm,Light Thunderstorms and Rain,160,2013-09-16 20:22:00
4:29 PM,78.1,75.0,90,29.98,2.0,SSE,29.9,41.4,0.02,Rain-Thunderstorm,Light Rain,160,2013-09-16 20:29:00
4:34 PM,78.1,75.0,90,29.98,5.0,SSE,28.8,-,0.02,Rain,Light Rain,160,2013-09-16 20:34:00
4:41 PM,78.1,75.9,93,29.98,10.0,SSE,23.0,33.4,0.02,Thunderstorm,Mostly Cloudy,150,2013-09-16 20:41:00
4:53 PM,77.0,75.0,94,29.99,9.0,South,18.4,-,0.02,Rain-Thunderstorm,Light Rain,170,2013-09-16 20:53:00
5:17 PM,75.9,75.0,97,30.00,10.0,South,11.5,-,0.00,,Overcast,180,2013-09-16 21:17:00
5:53 PM,75.9,73.9,94,29.99,10.0,South,9.2,-,0.00,,Partly Cloudy,170,2013-09-16 21:53:00
6:53 PM,75.9,73.0,91,29.99,10.0,SE,5.8,-,N/A,,Clear,130,2013-09-16 22:53:00
7:53 PM,79.0,73.9,84,29.99,10.0,Calm,Calm,-,N/A,,Clear,0,2013-09-16 23:53:00
8:53 PM,79.0,73.9,84,30.00,10.0,East,9.2,-,N/A,,Clear,100,2013-09-17 00:53:00
9:53 PM,79.0,73.9,84,30.02,10.0,East,9.2,-,N/A,,Clear,100,2013-09-17 01:53:00
10:53 PM,78.1,75.0,90,30.02,10.0,East,11.5,-,N/A,,Clear,100,2013-09-17 02:53:00
11:53 PM,77.0,73.0,88,30.02,10.0,ESE,8.1,-,N/A,,Clear,110,2013-09-17 03:53:00